Back to catalog

USA 368

AliveMilitaryVLEO
NORAD 59828·PAYLOAD·🇺🇸 United States

Launched May 22, 2024 from Vandenberg Space Force Base

Loading…

Next Passes (next 24 hours)

TLE

StaleSource: Mike McCants

Epoch: Aug 17, 2026, 22:16 UTC

1 59828U 24096Q   26229.92782873 0.00000000  00000-0  00000-0 0    03
2 59828  70.0240 157.1148 0002000 229.9860 130.0139 14.96714586    00

Track USA 368 in real time with AllMySat

Download on the App Store